This is the latest recevied weather packets stored in our database for station/object AB8XS. If no packets are shown the sender has not sent any weather packets the latest 10 day(s).
| Time | Temp. | Humidity | Pressure | Rain* | Wind** | Luminosity | Snow |
|---|---|---|---|---|---|---|---|
| 1777680317 | 5.56° C | 57% | 1016.2 hPa | 0 mm | - | 21 W/m² | - |
| 1777678217 | 6.11° C | 53% | 1016.2 hPa | 0 mm | - | 35 W/m² | - |
| 1777677317 | 7.22° C | 48% | 1016.2 hPa | 0 mm | - | 69 W/m² | - |
| 1777676717 | 7.22° C | 48% | 1016.1 hPa | 0 mm | - | 69 W/m² | - |
| 1777675517 | 7.22° C | 47% | 1016 hPa | 0 mm | - | 88 W/m² | - |
| 1777674017 | 7.78° C | 45% | 1016 hPa | 0 mm | - | 70 W/m² | - |
| 1777673717 | 7.78° C | 50% | 1015.9 hPa | 0 mm | - | 67 W/m² | - |
| 1777669517 | 9.44° C | 44% | 1015.5 hPa | 0 mm | - | 254 W/m² | - |
| 1777669216 | 9.44° C | 47% | 1015.5 hPa | 0 mm | - | 272 W/m² | - |
| 1777668331 | 10° C | 46% | 1015.4 hPa | 0 mm | - | 231 W/m² | - |
| 1777668017 | 10° C | 44% | 1015.4 hPa | 0 mm | - | 388 W/m² | - |
| 1777667432 | 10° C | 41% | 1015.4 hPa | 0 mm | - | 552 W/m² | - |
| 1777665647 | 10.56° C | 49% | 1015.4 hPa | 0 mm | - | 515 W/m² | - |
| 1777664716 | 10.56° C | 50% | 1015.4 hPa | 0 mm | - | 734 W/m² | - |
| 1777663516 | 10.56° C | 52% | 1015.4 hPa | 0 mm | - | 753 W/m² | - |
| 1777662917 | 10.56° C | 55% | 1015.4 hPa | 0 mm | - | 757 W/m² | - |
| 1777662617 | 10.56° C | 58% | 1015.2 hPa | 0 mm | - | 746 W/m² | - |
| 1777662332 | 10.56° C | 57% | 1015.3 hPa | 0 mm | - | 793 W/m² | - |
| 1777661146 | 10° C | 60% | 1015 hPa | 0 mm | - | 636 W/m² | - |
| 1777656316 | 7.78° C | 62% | 1014.9 hPa | 0 mm | - | 237 W/m² | - |
| 1777656016 | 7.78° C | 65% | 1014.9 hPa | 0 mm | - | 145 W/m² | - |
| 1777655746 | 7.78° C | 65% | 1014.9 hPa | 0 mm | - | 156 W/m² | - |
| 1777654516 | 7.78° C | 62% | 1014.9 hPa | 0 mm | - | 139 W/m² | - |
| 1777653016 | 7.78° C | 57% | 1014.9 hPa | 0 mm | - | 147 W/m² | - |
| 1777652716 | 7.78° C | 60% | 1015 hPa | 0 mm | - | 275 W/m² | - |
* Rain latest hour (hover to see other rain measurements)
** Current wind speed in m/s (hover to see current wind gust speed)